Powrót do katalogu

FENGYUN 1C DEB

AktywnySSO
NORAD 30878·DEBRIS·🇨🇳 China

Wystrzelony May 10, 1999 z Taiyuan Satellite Launch Center

Loading…

Następne Przeloty (najbliższe 24 godziny)

TLE

ŚwieżeSource: Space-Track

Epoka: Sep 12, 2026, 22:20 UTC

1 30878U 99025AXQ 26255.93084205  .00000527  00000-0  30736-3 0  9998
2 30878  98.7289 255.0887 0039199 233.4099 189.3108 14.12373463  2261

Śledź FENGYUN 1C DEB w czasie rzeczywistym z AllMySat

Download on the App Store